Location: Les Moreaux
(47.2278°N, 1.4966°E)
Time: 22:17:12
(UTC+00:00)

ERS-1 Rocket - Pass Details

Date: 19 May 2025
Orbit: 747 x 752 km, 98.2° (Epoch: 12 June)

Event Time Altitude Azimuth Distance (km) Brightness Sun altitude
Exits shadow 20:04:52 - 149° (SSE) 2,695 5.2 -5.9°
Reaches altitude 10° 20:05:56 10° 147° (SSE) 2,271 4.8 -6.0°
Maximum altitude 20:10:48 54° 71° (ENE) 912 3.3 -6.7°
Drops below altitude 10° 20:15:42 10° 355° (N) 2,287 6.2 -7.3°
Sets 20:18:02 0° 351° (N) 3,216 7.1 -7.6°
